Weather Roundup
Issued by NWS

Home | Current Version | Previous Version | Graphics & Text | Print | Product List | Glossary Off
Versions: 1 2 3 4 5 6 7 8 9 10 11 12 13 14 15 16 17 18 19 20 21 22 23 24 25 26 27 28 29 30 31 32 33 34 35 36 37 38 39 40 41 42 43 44 45 46 47 48 49 50

000
NZUS93 KARX 231910
HRRWXR

CURRENT HOURLY OBSERVATIONS ACROSS
MUCH OF THE UPPER MISSISSIPPI VALLEY
NATIONAL WEATHER SERVICE LA CROSSE WI
200 PM CDT WED MAY 23 2018


...SOUTHEAST MINNESOTA...


CITY           SKY/WX    TMP DP  RH WIND       PRES   REMARKS
ROCHESTER      FAIR      78  61  55 SW9       30.15S
ROCHESTER/MAYO FAIR      78  58  50 S9        30.15S
WINONA         PTSUNNY   77  61  57 S3        30.12S
AUSTIN         FAIR      79  63  57 SW8       30.13F
ALBERT LEA     FAIR      77  61  57 SE3       30.12F
DODGE CENTER   FAIR      75  61  60 CALM      30.15S
PRESTON        FAIR      77  62  58 S10       30.16S
OWATONNA       FAIR      77  64  65 CALM      30.13F
FARIBAULT      FAIR      77  63  61 CALM      30.13F
$$

...ELSEWHERE IN MINNESOTA...


CITY           SKY/WX    TMP DP  RH WIND       PRES   REMARKS
MINNEAPOLIS    CLOUDY    79  61  53 S8        30.12S
INTNL FALLS    PTSUNNY   82  52  35 SW7       30.07S
DULUTH         FAIR      80  56  43 SW12      30.12F
RED WING       FAIR      79  57  47 CALM      30.12S
REDWOOD FALLS  CLOUDY    75  66  73 SE17      30.06S
MANKATO        FAIR      74  63  68 E5        30.12F
WORTHINGTON    CLOUDY    83  66  56 S14G22    30.06F
FAIRMONT       CLOUDY    78  67  68 SW6       30.10S
$$

...SOUTHWEST WISCONSIN...


CITY           SKY/WX    TMP DP  RH WIND       PRES   REMARKS
LA CROSSE      FAIR      79  64  60 S10       30.14S
PRAIRIE DU CHI FAIR      78  60  54 SE7       30.14F
BOSCOBEL       FAIR      80  63  55 VRB7      30.16F
LONE ROCK      NOT AVBL
PLATTEVILLE    FAIR      75  65  70 SE8       30.17F
FORT MC COY    FAIR      75  61  61 S6        30.17S
CAMP DOUGLAS   PTSUNNY   75  61  60 S5        30.17S
MAUSTON-NEW LI FAIR      77  64  63 CALM      30.16F
VIROQUA        FAIR      76  63  63 S8        30.17F
WIS DELLS      FAIR      77  58  50 SE3       30.17F
$$

...ELSEWHERE IN WISCONSIN...


CITY           SKY/WX    TMP DP  RH WIND       PRES   REMARKS
MILWAUKEE      PTSUNNY   74  62  66 SE10      30.19F
MADISON        PTSUNNY   76  59  55 S8        30.17F
GREEN BAY      FAIR      79  58  48 SW9       30.15F
EAU CLAIRE     FAIR      78  62  57 S9G21     30.13F
BLACK RVR FLS  FAIR      79  57  47 S6        30.16S
MEDFORD        PTSUNNY   74  57  55 W3        30.17S
WAUSAU         FAIR      77  56  48 SW5       30.14S
WIS RAPIDS     FAIR      76  56  49 SW10      30.17F
MARSHFIELD     PTSUNNY   76  61  59 S8        30.16
RICE LAKE      FAIR      77  58  53 SE7       30.15F
$$

...NORTHEAST IOWA...


CITY           SKY/WX    TMP DP  RH WIND       PRES   REMARKS
WATERLOO       FAIR      81  66  60 S14       30.10F
DUBUQUE        FAIR      76  61  59 SE9       30.17F
DECORAH        FAIR      75  66  73 VRB6G13   30.16R
MASON CITY     CLOUDY    80  69  69 S15       30.13S
CHARLES CITY   NOT AVBL
OELWEIN        FAIR      81  66  61 S14       30.14F
$$

...ELSEWHERE IN IOWA...


CITY           SKY/WX    TMP DP  RH WIND       PRES   REMARKS
DES MOINES     MOSUNNY   85  68  56 SE14      30.09F
IOWA CITY      FAIR      81  65  58 MISG      30.15F
FORT DODGE     SUNNY     82  68  62 S10G17    30.08F
MARSHALLTOWN   SUNNY     82  67  60 S12       30.10F
CEDAR RAPIDS   FAIR      80  64  58 SE13      30.13F
$$

...NORTHERN ILLINOIS...


CITY           SKY/WX    TMP DP  RH WIND       PRES   REMARKS
CHICAGO-OHARE  FAIR      78  48  34 CALM      30.18F
CHICAGO-MIDWAY FAIR      77  57  50 E7        30.19F
MOLINE         FAIR      81  63  54 MISG      30.15F
ROCKFORD       FAIR      75  60  59 S5        30.20F
PEORIA         FAIR      80  61  52 S6        30.17F
$$

NOTE: "FAIR" INDICATES FEW OR NO CLOUDS BELOW 12,000 FEET WITH NO
SIGNIFICANT WEATHER AND/OR OBSTRUCTIONS TO VISIBILITY. WIND
SPEEDS ARE IN MILES-PER-HOUR.




USA.gov is the U.S. government's official web portal to all federal, state and local government web resources and services.